Location: Unspecified
(41.1637°N, 24.2901°E)
Time: 14:43:37
(UTC+02:00)

ISS - Pass Details

Date: 30 June 2022
Orbit: 414 x 420 km, 51.6° (Epoch: 05 July)

Event Time Altitude Azimuth Distance (km) Brightness Sun altitude
Exits shadow 04:08:39 - 271° (W) 1,951 -0.8 -7.6°
Reaches altitude 10° 04:09:55 10° 280° (W) 1,495 -1.3 -7.4°
Maximum altitude 04:12:45 25° 338° (NNW) 896 -1.9 -7.0°
Drops below altitude 10° 04:15:36 10° 36° (NE) 1,503 0.6 -6.6°
Sets 04:17:58 0° 50° (NE) 2,370 2.9 -6.3°
